Station BFTN7 - 8656483 - Beaufort, NC Image indicating link to RSS feed of recent meteorological observations for station BFTN7


Conditions at BFTN7 as of
(6:18 pm EDT)
2218 GMT on 05/18/2024:
     

Click on the graph icon in the table below to see a time series plot of the last five days of that observation.

5-day plot - Wind Direction Wind Direction (WDIR):WSW ( 240 deg true )
5-day plot - Wind Speed Wind Speed (WSPD): 7.0 kts
5-day plot - Wind Gust Wind Gust (GST): 12.0 kts
5-day plot - Atmospheric Pressure Atmospheric Pressure (PRES):29.83 in
5-day plot - Air Temperature Air Temperature (ATMP): 74.3 °F
5-day plot - Water Temperature Water Temperature (WTMP): 72.7 °F
5-day plot - Wind Speed at 10 Meters Wind Speed at 10 meters (WSPD10M): 7.8 kts
5-day plot - Wind Speed at 20 Meters Wind Speed at 20 meters (WSPD20M): 7.8 kts
5-day plot -  Wind Speed, Wind Gust and Atmospheric Pressure Combined plot of Wind Speed, Gust, and Air Pressure
NOS Water Level Observation Network Water Level
Previous observations
TIME
(EDT)
5-day plot - Wind Direction
WDIR
 
5-day plot - Wind Speed
WSPD
kts
5-day plot - Wind Gust
GST
kts
5-day plot - Wave Height
WVHT
ft
5-day plot - Dominant Wave Period
DPD
sec
5-day plot - Average Wave Period
APD
sec
5-day plot - Mean Wave Direction
MWD
 
5-day plot - Atmospheric Pressure
PRES
in
5-day plot - Pressure Tendency
PTDY
in
5-day plot - Air Temperature
ATMP
°F
5-day plot - Water Temperature
WTMP
°F
5-day plot - Dew Point
DEWP
°F
5-day plot - Salinity
SAL
psu
5-day plot - Visibility
VIS
nmi
5-day plot - Tide (above MLLW)
TIDE
ft
2024-05-18 06:12 pmWSW 6.0 13.0----29.83- 74.3 72.7----
2024-05-18 06:06 pmWSW 8.9 14.0----29.84- 74.3 72.7----
2024-05-18 06:00 pmWSW 7.0 14.0----29.83-0.04 74.7 72.5----
2024-05-18 05:54 pm SW 8.9 15.9----29.83- 74.7 72.5----
2024-05-18 05:48 pmWSW 7.0 11.1----29.83- 75.2 72.5----
2024-05-18 05:42 pmWSW 8.0 12.0----29.83- 75.0 72.5----
2024-05-18 05:36 pmWSW 8.0 13.0----29.82- 75.2 72.7----
2024-05-18 05:30 pmWSW 7.0 12.0----29.83-- 72.7----
2024-05-18 05:24 pmWSW 7.0 13.0----29.83-- 72.7----
2024-05-18 05:18 pmWSW 8.9 12.0----29.83- 74.8 72.7----
2024-05-18 05:12 pm SW 7.0 14.0----29.83- 74.5 72.7----
2024-05-18 05:06 pm SW 8.0 14.0----29.83- 74.7 72.9----
2024-05-18 05:00 pmWSW 8.9 15.0----29.83-0.04 75.4 72.9----
2024-05-18 04:54 pmWSW 6.0 11.1----29.83- 75.6 72.9----
2024-05-18 04:48 pmWSW 8.0 11.1----29.83- 75.9 72.9----
2024-05-18 04:42 pmWSW 6.0 8.9----29.83- 76.3 73.0----
2024-05-18 04:36 pmWSW 7.0 11.1----29.83- 75.7 73.0----
2024-05-18 04:30 pmWSW 8.9 12.0----29.83- 75.9 73.0----
2024-05-18 04:24 pmWSW 6.0 11.1----29.83- 75.7 73.0----
2024-05-18 04:18 pmWSW 8.0 12.0----29.83- 75.2 73.0----
2024-05-18 04:12 pmWSW 7.0 13.0----29.83- 75.2 73.2----
2024-05-18 04:06 pmWSW 11.1 15.0----29.84- 74.8 73.6----
2024-05-18 04:00 pmWSW 7.0 12.0----29.84-0.03 75.2 73.4----
2024-05-18 03:54 pmWSW 7.0 12.0----29.85- 75.4 73.4----
2024-05-18 03:48 pmWSW 8.0 14.0----29.85- 75.6 73.4----
2024-05-18 03:42 pmWSW 8.9 13.0----29.85- 75.4 73.4----
2024-05-18 03:36 pmWSW 6.0 14.0----29.86- 75.9 73.4----
2024-05-18 03:30 pmWSW 8.9 14.0----29.86-- 73.4----
2024-05-18 03:24 pmWSW 8.0 11.1----29.86-- 73.4----
2024-05-18 03:18 pmWSW 6.0 13.0----29.86- 76.3 73.4----
2024-05-18 03:12 pmWSW 8.9 13.0----29.86- 75.7 73.4----
2024-05-18 03:06 pmWSW 8.0 14.0----29.87- 76.1 73.4----
2024-05-18 03:00 pmWSW 7.0 13.0----29.87-0.03- 73.4----
2024-05-18 02:54 pmWSW 7.0 11.1----29.87-- 73.2----
2024-05-18 02:48 pm SW 5.1 9.9----29.87- 77.2 73.2----
2024-05-18 02:42 pm SW 5.1 11.1----29.87- 77.0 73.2----
2024-05-18 02:36 pm SW 5.1 8.9----29.86- 76.6 73.0----
2024-05-18 02:30 pm SW 5.1 8.0----29.86- 76.6 73.0----
2024-05-18 02:24 pm SW 5.1 8.9----29.87- 77.0 73.0----
2024-05-18 02:18 pmSSW 5.1 8.9----29.87- 77.0 73.0----
2024-05-18 02:12 pmSSW 5.1 8.0----29.87- 76.5 73.0----
2024-05-18 02:06 pm S 6.0 7.0----29.88- 75.9 73.0----
2024-05-18 02:00 pm-------29.88-0.02 75.7 73.0----
2024-05-18 01:54 pm-------29.88- 76.3 73.0----
2024-05-18 01:48 pmSSW 4.1 8.0----29.88- 75.7 73.0----
2024-05-18 01:42 pmSSW 5.1 9.9----29.88- 75.0 73.2----
2024-05-18 01:36 pm S 6.0 8.9----29.88- 75.0 73.6----
2024-05-18 01:30 pmSSW 7.0 9.9----29.88- 75.0 73.6----
2024-05-18 01:24 pmSSW 6.0 8.9----29.89- 75.0 73.6----
2024-05-18 01:18 pm S 6.0 8.9----29.88- 75.2 73.6----
2024-05-18 01:12 pm S 8.0 9.9----29.88- 74.8 73.8----
2024-05-18 01:06 pm S 8.0 9.9----29.88- 75.0 73.8----
2024-05-18 01:00 pm S 8.9 9.9----29.88-0.03 75.2 73.8----
2024-05-18 12:54 pm S 6.0 8.0----29.88- 75.4 73.8----
2024-05-18 12:48 pm S 6.0 8.0----29.88- 75.6 73.8----
2024-05-18 12:42 pm S 6.0 8.0----29.88- 76.1 73.8----
2024-05-18 12:36 pm S 6.0 8.0----29.89- 75.9 73.6----
2024-05-18 12:30 pm S 6.0 8.0----29.89- 77.0 73.6----
2024-05-18 12:24 pm SW 4.1 6.0----29.90- 77.9 73.4----
2024-05-18 12:18 pm SW 4.1 8.0----29.90- 77.9 73.2----
2024-05-18 12:12 pm SW 4.1 7.0----29.91- 78.1 73.0----
2024-05-18 12:06 pm SW 5.1 6.0----29.91- 77.5 72.9----
2024-05-18 12:00 pmSSW 2.9 6.0----29.90-0.01 77.0 72.9----
2024-05-18 11:54 am S 4.1 6.0----29.90- 76.6 73.0----
2024-05-18 11:48 amSSW 4.1 6.0----29.90- 76.3 72.9----
2024-05-18 11:42 amSSW 4.1 7.0----29.90- 76.1 72.9----
2024-05-18 11:36 am S 5.1 7.0----29.89- 75.6 72.9----
2024-05-18 11:30 am S 5.1 6.0----29.89- 75.4 72.9----
2024-05-18 11:24 am S 4.1 6.0----29.89- 75.0 72.9----
2024-05-18 11:18 am S 6.0 7.0----29.89-- 72.9----
2024-05-18 11:12 am S 5.1 7.0----29.89-- 72.9----
2024-05-18 11:06 am S 5.1 7.0----29.89-- 72.9----
2024-05-18 11:00 am S 5.1 7.0----29.90-0.01 74.1 72.9----
2024-05-18 10:54 am S 6.0 8.0----29.90- 74.1 72.9----
2024-05-18 10:48 am S 5.1 7.0----29.90- 74.3 72.7----
2024-05-18 10:42 am S 5.1 7.0----29.90- 74.3 72.7----
2024-05-18 10:36 am S 6.0 8.0----29.89- 73.9 72.7----
2024-05-18 10:30 am S 7.0 8.0----29.90- 73.9 72.7----
2024-05-18 10:24 am S 5.1 7.0----29.90- 73.9 72.5----
2024-05-18 10:18 am S 5.1 7.0----29.90- 73.9 72.5----
2024-05-18 10:12 am S 7.0 7.0----29.90- 74.1 72.5----
2024-05-18 10:06 am S 5.1 6.0----29.91- 74.7 72.5----
2024-05-18 10:00 am S 5.1 6.0----29.91+0.01- 72.5----
2024-05-18 09:54 am S 1.9 4.1----29.91-- 72.5----
2024-05-18 09:48 amSSE 1.9 1.9----29.90- 75.4 72.3----
2024-05-18 09:42 amSSE 1.9 2.9----29.90- 74.5 72.3----
2024-05-18 09:36 am S 2.9 5.1----29.90- 74.1 72.3----
2024-05-18 09:30 am S 4.1 5.1----29.90- 73.9 72.3----
2024-05-18 09:24 am S 2.9 4.1----29.90- 74.1 72.3----
2024-05-18 09:18 am S 4.1 5.1----29.90-------
2024-05-18 09:12 am S 2.9 4.1----29.91-------
2024-05-18 09:06 am S 4.1 5.1----29.91-------
2024-05-18 09:00 am SW 1.9 4.1----29.91+0.02 74.3 72.3----
2024-05-18 08:54 am SW 1.9 5.1----29.91- 74.5 72.3----
2024-05-18 08:48 am SW 1.9 4.1----29.91- 74.7 72.3----
2024-05-18 08:42 amSSW 1.9 5.1----29.91- 74.5 72.3----
2024-05-18 08:36 amSSW 1.9 5.1----29.91- 74.3 72.3----
2024-05-18 08:30 am S 2.9 5.1----29.91- 74.3 72.3----
2024-05-18 08:24 amSSE 2.9 5.1----29.90- 73.8 72.1----
2024-05-18 08:18 am SE 4.1 4.1----29.90- 73.0 72.1----
2024-05-18 08:12 am SE 2.9 4.1----29.90- 72.9 72.1----
2024-05-18 08:06 amSSE 2.9 4.1----29.91- 72.3 72.1----
2024-05-18 08:00 am-------29.91+0.03 72.1 72.1----
2024-05-18 07:54 am-------29.91- 72.1 72.3----
2024-05-18 07:48 am SE 4.1 5.1----29.91- 72.1 72.3----
2024-05-18 07:42 am SE 4.1 6.0----29.90- 71.6 72.3----
2024-05-18 07:36 am SE 5.1 6.0----29.90- 71.1 72.3----
2024-05-18 07:30 am SE 5.1 7.0----29.90- 70.3 72.3----
2024-05-18 07:24 am SE 7.0 8.0----29.90- 70.0 72.3----
2024-05-18 07:18 am SE 2.9 7.0----29.90- 69.4 72.3----
2024-05-18 07:12 amESE 4.1 6.0----29.90- 69.1 72.3----
2024-05-18 07:06 amESE 4.1 5.1----29.90- 68.9 72.1----
2024-05-18 07:00 amESE 4.1 5.1----29.89+0.00- 72.1----
2024-05-18 06:54 amESE 4.1 6.0----29.89-- 72.1----
2024-05-18 06:48 amESE 4.1 7.0----29.89- 68.2 72.0----
2024-05-18 06:42 amESE 5.1 6.0----29.88- 67.8 71.8----
2024-05-18 06:36 amESE 5.1 7.0----29.88- 67.5 71.8----
2024-05-18 06:30 amESE 5.1 6.0------ 67.1 71.6----
2024-05-18 06:24 am SE 1.9 4.1------ 67.1 71.4----
2024-05-18 06:18 am- 0.0 4.1----29.89- 66.7 71.4----
2024-05-18 06:12 am E 4.1 7.0----29.89- 66.6 71.4----
2024-05-18 06:06 am E 4.1 6.0----29.88- 66.7 71.4----
2024-05-18 06:00 am-------29.89-0.02 66.4-----
2024-05-18 05:54 am-------29.89- 66.0-----
2024-05-18 05:48 am NE 1.0 2.9----29.89- 66.0 71.4----
2024-05-18 05:42 amNNW 1.9 6.0----29.89- 65.8 71.4----
2024-05-18 05:36 am E 2.9 5.1----29.89- 65.8 71.4----
2024-05-18 05:30 am E 4.1 6.0----29.89- 66.0 71.4----
2024-05-18 05:24 amENE 4.1 7.0----29.88- 65.8 71.4----
2024-05-18 05:18 am E 4.1 11.1----29.88- 65.8 71.4----
2024-05-18 05:12 am E 5.1 9.9----29.88- 66.0 71.4----
2024-05-18 05:06 am E 5.1 8.9----29.88- 66.0 71.4----
2024-05-18 05:00 am E 7.0 9.9----29.88-0.03 66.0 71.4----
2024-05-18 04:54 am E 6.0 9.9----29.87- 65.8 71.4----
2024-05-18 04:48 am E 6.0 8.0----29.87-- 71.4----
2024-05-18 04:42 am E 7.0 11.1----29.87-- 71.4----
2024-05-18 04:36 am E 8.0 9.9----29.87-- 71.4----
2024-05-18 04:30 am E 6.0 9.9----29.87- 65.1 71.4----
2024-05-18 04:24 am E 5.1 8.9----29.87- 64.8 71.6----
2024-05-18 04:18 amESE 6.0 11.1----29.88- 64.8 71.6----
2024-05-18 04:12 am E 7.0 9.9----29.88- 64.4 71.8----
2024-05-18 04:06 am E 7.0 9.9----29.88- 64.2 72.0----
2024-05-18 04:00 am E 7.0 9.9----29.89-0.06 64.2 72.0----
2024-05-18 03:54 am E 7.0 9.9----29.89- 64.4 72.0----
2024-05-18 03:48 am E 8.0 9.9----29.89- 64.2 72.1----
2024-05-18 03:42 am E 7.0 11.1----29.90- 64.4 72.1----
2024-05-18 03:36 am E 5.1 8.0----29.90- 64.8 72.1----
2024-05-18 03:30 am E 7.0 8.9----29.90- 64.9 72.1----
2024-05-18 03:24 am E 4.1 7.0----29.91- 65.1 72.1----
2024-05-18 03:18 am E 5.1 8.9----29.91- 65.3 72.1----
2024-05-18 03:12 amESE 8.0 8.9----29.91- 65.8 72.1----
2024-05-18 03:06 amESE 7.0 9.9----29.91- 66.2 72.1----
2024-05-18 03:00 am E 6.0 8.9----29.91-0.04 66.2 72.1----
2024-05-18 02:54 am E 5.1 8.9----29.91- 66.4 72.1----
2024-05-18 02:48 am E 8.0 11.1----29.91- 66.4 72.1----
2024-05-18 02:42 am E 6.0 8.9----29.91- 66.4 72.1----
2024-05-18 02:36 am E 6.0 8.0----29.91- 66.2 72.1----
2024-05-18 02:30 am E 6.0 9.9----29.91- 66.2 72.1----
2024-05-18 02:24 amESE 6.0 8.9----29.91- 66.2 72.0----
2024-05-18 02:18 amESE 6.0 9.9----29.91- 66.0 72.0----
2024-05-18 02:12 amESE 7.0 12.0----29.91- 66.0 72.0----
2024-05-18 02:06 amESE 8.0 11.1----29.90- 66.0 72.0----
2024-05-18 02:00 amESE 6.0 11.1----29.90-0.06 66.0 72.0----
2024-05-18 01:54 am E 8.0 12.0----29.90- 65.8 72.0----
2024-05-18 01:48 am E 7.0 9.9----29.91- 66.0 72.1----
2024-05-18 01:42 amESE 7.0 9.9----29.92- 66.0 72.1----
2024-05-18 01:36 amESE 8.0 9.9----29.92- 65.8 72.3----
2024-05-18 01:30 amESE 7.0 11.1----29.93- 65.8 72.5----
2024-05-18 01:24 amESE 8.9 11.1----29.93- 65.8 72.7----
2024-05-18 01:18 amESE 7.0 9.9----29.94- 65.8 72.7----
2024-05-18 01:12 amESE 7.0 8.9----29.94- 65.8 72.7----
2024-05-18 01:06 amESE 5.1 8.0----29.95- 65.8 72.7----
2024-05-18 01:00 amESE 5.1 7.0----29.95+0.00 66.0 72.7----
2024-05-18 12:54 amESE 2.9 8.0----29.95- 65.8 72.9----
2024-05-18 12:48 amESE 6.0 9.9----29.94- 65.8 72.9----
2024-05-18 12:42 amESE 6.0 8.9----29.94- 65.7 73.0----
2024-05-18 12:36 amESE 6.0 7.0----29.95- 65.8 73.2----
2024-05-18 12:30 amESE 6.0 7.0----29.95- 65.8 73.2----
2024-05-18 12:24 amESE 5.1 8.0----29.95- 66.0 73.2----
2024-05-18 12:18 amESE 6.0 8.0----29.95- 66.0 73.4----
2024-05-18 12:12 amESE 6.0 11.1----29.94- 65.8 73.4----
2024-05-18 12:06 amESE 5.1 8.0----29.94- 65.8 73.2----
2024-05-18 12:00 amESE 7.0 8.9----29.95+0.02 65.8 73.2----
2024-05-17 11:54 pmESE 7.0 8.9----29.95- 65.8 73.0----
2024-05-17 11:48 pmESE 6.0 8.0----29.96- 65.8 73.0----
2024-05-17 11:42 pmESE 6.0 8.9----29.96- 66.0 73.0----
2024-05-17 11:36 pmESE 6.0 8.0----29.96- 65.8 73.0----
2024-05-17 11:30 pmESE 5.1 8.0----29.96- 65.8 73.2----
2024-05-17 11:24 pmESE 5.1 8.9----29.96- 66.0 73.2----
2024-05-17 11:18 pmESE 4.1 8.9----29.95- 66.0 73.2----
2024-05-17 11:12 pm E 6.0 8.9----29.95- 65.8 73.2----
2024-05-17 11:06 pmESE 6.0 9.9----29.96- 65.8 73.2----
2024-05-17 11:00 pmESE 7.0 8.9----29.96+0.03 66.0 73.2----
2024-05-17 10:54 pmESE 6.0 9.9----29.96- 66.0 73.2----
2024-05-17 10:48 pmESE 6.0 8.0----29.96- 65.8 73.2----
2024-05-17 10:42 pmESE 7.0 8.9----29.96- 65.7 73.2----
2024-05-17 10:36 pmESE 6.0 7.0----29.96- 65.7 73.2----
2024-05-17 10:30 pmESE 5.1 8.9----29.96- 66.0 73.2----
2024-05-17 10:24 pmESE 7.0 9.9----29.95- 65.5 73.2----
2024-05-17 10:18 pmESE 5.1 8.0----29.95- 65.7 73.4----
2024-05-17 10:12 pmESE 6.0 8.0----29.96- 65.5 73.4----
2024-05-17 10:06 pm E 5.1 9.9----29.95- 65.7 73.4----
2024-05-17 10:00 pm E 5.1 8.9----29.94+0.03 65.7 73.4----
2024-05-17 09:54 pm E 5.1 9.9----29.94- 65.5 73.4----
2024-05-17 09:48 pm--------- 65.3 73.4----
2024-05-17 09:42 pm--------- 65.3 73.4----
2024-05-17 09:36 pm--------- 65.5 73.4----
2024-05-17 09:30 pm E 7.0 12.0----29.93- 65.5 73.4----
2024-05-17 09:24 pm E 6.0 8.9----29.93- 65.7 73.4----
2024-05-17 09:18 pm E 7.0 11.1----29.93- 65.7 73.4----
2024-05-17 09:12 pm E 6.0 11.1----29.93- 66.0 73.6----
2024-05-17 09:06 pmESE 8.0 9.9----29.93- 66.0 73.6----
2024-05-17 09:00 pmESE 6.0 8.9----29.93+0.02 65.8-----
2024-05-17 08:54 pmESE 7.0 9.9----29.93- 66.2-----
2024-05-17 08:48 pmESE 6.0 9.9----29.93-- 73.6----
2024-05-17 08:42 pmESE 7.0 9.9----29.93-- 73.6----
2024-05-17 08:36 pmESE 7.0 8.0----29.93-- 73.6----
2024-05-17 08:30 pmESE 5.1 8.9----29.93- 65.7 73.6----
2024-05-17 08:24 pm SE 7.0 9.9----29.93- 65.7 73.6----
2024-05-17 08:18 pmESE 6.0 8.0----29.93- 65.8 73.6----
2024-05-17 08:12 pmESE 5.1 8.0----29.93- 66.0 73.6----
2024-05-17 08:06 pmESE 6.0 11.1----29.93- 66.2 73.6----
2024-05-17 08:00 pmESE 7.0 9.9----29.93+0.01 66.0 73.6----
2024-05-17 07:54 pmESE 9.9 11.1----29.93- 66.0 73.6----
2024-05-17 07:48 pmESE 8.9 11.1----29.93- 66.4 73.6----
2024-05-17 07:42 pmESE 8.9 11.1----29.93- 66.2 73.6----
2024-05-17 07:36 pm SE 9.9 11.1----29.93- 66.2 73.6----
2024-05-17 07:30 pmESE 6.0 8.9----29.93- 66.4 73.6----
2024-05-17 07:24 pm E 6.0 9.9----29.92- 66.2 73.8----
2024-05-17 07:18 pmESE 8.0 9.9----29.92- 66.4 73.8----
2024-05-17 07:12 pm E 7.0 9.9----29.92- 66.2 73.8----
2024-05-17 07:06 pm E 5.1 12.0----29.92- 66.7 73.6----
2024-05-17 07:00 pm E 8.0 12.0----29.91+0.00 66.2 73.6----
2024-05-17 06:54 pm E 6.0 9.9----29.91- 66.4 73.4----
2024-05-17 06:48 pmESE 6.0 8.0----29.92- 66.6 73.2----
2024-05-17 06:42 pm E 4.1 8.9----29.92- 66.7 73.0----
2024-05-17 06:36 pm E 5.1 11.1----29.91- 66.7 72.9----
2024-05-17 06:30 pm-------29.91- 66.7 72.5----
2024-05-17 06:24 pm-------29.91- 66.6 72.5----
2024-05-17 06:18 pm E 6.0 9.9----29.92-- 72.5----
2024-05-17 06:12 pmESE 7.0 12.0----29.92-- 72.5----
2024-05-17 06:06 pmESE 8.9 13.0----29.91-- 72.5----
2024-05-17 06:00 pm E 7.0 13.0----29.91-0.03 66.7 72.5----
2024-05-17 05:54 pmESE 7.0 12.0----29.91- 66.9 72.5----